Weather in Lynmouth

United Kingdom     51°13′28″N   3°49′00″W
temp.,
°C
wind,
m/s
gust,
m/s
humid.,
%
clouds,
%
prec.,
mm/h
press.,
hPa
HPBL,
m
9 december, thu
thu900:00+8wnw1517635 0.6 10021338
03:00+9wnw1416645 0.0 10031434
06:00+9wnw111260100 0.0 10041426
09:00+9wsw786110 0.0 10031356
12:00+8ssw81077100 0.0 1002528
15:00+9ssw101586100 1.0 997651
18:00+10sw71093100 2.8 994609
21:00+9wnw14177691 3.1 9971482
10 december, fri
fri1000:00+8nw1518728 3.8 9981568
03:00+8nw15186788 0.7 9991682
06:00+7nw1516697 1.1 10011491
09:00+8nw1417655 0.4 10041727
12:00+8nw1315635 0.9 10051614
15:00+8nw1315657 0.4 10081617
18:00+8nw11136484 0.4 10111411
21:00+9nw1011655 0.0 10131251
11 december, sat
sat1100:00+9wnw896878 0.1 10141103
03:00+9wnw676876 0.0 10161119
06:00+8ssw5575100 0.0 1017238
09:00+8ssw7879100 0.0 1017345
12:00+9ssw71284100 0.3 1017544
15:00+11ssw81391100 0.0 1016307
18:00+12sw101490100 0.3 1017307
21:00+12sw101590100 0.1 1018307
12 december, sun
sun1200:00+12sw111689100 0.3 1018345
03:00+12sw10158870 0.0 1019383
06:00+12sw91484100 0.0 1019287
09:00+12sw9138617 0.0 1019268
12:00+12sw913878 0.0 1020280
15:00+12ssw91284100 0.0 1020277
18:00+11s812847 0.0 1020237
21:00+12s81285100 0.0 1020284
13 december, mon
mon1300:00+11ssw8128055 0.0 1020385
03:00+12ssw71278100 0.0 1019349
06:00+12s91380100 0.1 1018384
09:00+11ssw111783100 0.0 1019519
12:00+12ssw101481100 0.0 1019436
15:00+10w6896100 0.8 1020324
18:00+9wnw5694100 2.1 1022371
21:00+9nw568311 0.1 1023433